Location: Meanaryar
(48.4161°N, 4.7315°W)
Time: 02:36:15
(UTC+00:00)

Cosmos 909 Rocket - Pass Details

Date: 18 September 2020
Orbit: 991 x 2088 km, 65.9° (Epoch: 29 October)

Event Time Altitude Azimuth Distance (km) Brightness Sun altitude
Rises 21:37:52 0° 322° (NW) 3,986 8.4 -29.9°
Reaches altitude 10° 21:40:43 10° 327° (NNW) 2,925 7.4 -30.3°
Enters shadow 21:47:00 58° 35° (NE) 1,156 4.3 -31.0°
